Weather History for KLWA - October, 2013

Change the Weather History Date:

Monday, October 21, 2013

  Actual Average (KBIV) Record (KBIV)
Temperature  
Mean Temperature 50 °F 51 °F  
Max Temperature 57 °F 60 °F 83 °F (1953)
Min Temperature 42 °F 42 °F 25 °F (1974)
Degree Days  
Heating Degree Days 16 14  
Month to date heating degree days 236  
Since 1 July heating degree days 366  
Cooling Degree Days 0 0  
Month to date cooling degree days 10  
Year to date cooling degree days 692  
Moisture  
Dew Point 39 °F    
Average Humidity 69    
Maximum Humidity 90    
Minimum Humidity 51    
Precipitation  
Precipitation 0.00 in 0.13 in 0.88 in (1987)
Month to date precipitation 2.34  
Year to date precipitation 29.45  
Sea Level Pressure  
Sea Level Pressure 29.85 in    
Wind  
Wind Speed 11 mph (West)    
Max Wind Speed 18 mph    
Max Gust Speed 33 mph    
Visibility 10 miles    
Events Rain    
T = Trace of Precipitation, MM = Missing Value Source: NWS Daily Summary

Daily Weather History Graph

Daily Weather History Graph

Search for Another Location

Airport or City:

Trip Planner

Search our weather history database for the weather conditions in past years. The results will help you decide how hot, cold, wet, or windy it might be!

Date:

Astronomy

Oct. 21, 2013 Rise Set
Actual Time 8:05 AM EDT 6:53 PM EDT
Civil Twilight 7:36 AM EDT 7:21 PM EDT
Nautical Twilight 7:03 AM EDT 7:54 PM EDT
Astronomical Twilight 6:31 AM EDT 8:27 PM EDT
Moon 8:42 PM EDT (10/21) 10:42 AM EDT (10/21)
Length of Visible Light 11h 45m
Length of Day
10h 48m
Waning Gibbous, 93% of the Moon is Illuminated
Oct 21
Waning Gibbous
Oct 26
Last Quarter
Nov 3
New
Nov 10
First Quarter
Nov 17
Full

Hourly Weather History & Observations

Time (EDT) Temp. Windchill Dew Point Humidity Pressure Visibility Wind Dir Wind Speed Gust Speed Precip Events Conditions
12:15 AM 56.3 °F - 48.2 °F 74% 29.79 in 10.0 mi SW 9.2 mph 16.1 mph N/A   Overcast
12:34 AM 56.8 °F - 48.0 °F 72% 29.78 in 10.0 mi SSW 9.2 mph - N/A   Overcast
12:55 AM 57.4 °F - 46.4 °F 67% 29.79 in 10.0 mi SW 12.7 mph 18.4 mph N/A   Overcast
1:15 AM 57.6 °F - 45.0 °F 63% 29.78 in 10.0 mi SSW 10.4 mph 17.3 mph N/A   Overcast
1:34 AM 56.8 °F - 43.7 °F 61% 29.78 in 10.0 mi SSW 10.4 mph 16.1 mph N/A   Overcast
1:55 AM 56.3 °F - 45.0 °F 66% 29.79 in 10.0 mi SW 10.4 mph - N/A   Overcast
2:15 AM 55.6 °F - 47.3 °F 74% 29.79 in 10.0 mi SW 13.8 mph 19.6 mph N/A Rain Light Rain
2:35 AM 54.7 °F - 49.1 °F 81% 29.79 in 10.0 mi SW 10.4 mph - N/A Rain Light Rain
2:55 AM 55.0 °F - 49.5 °F 81% 29.79 in 10.0 mi SW 8.1 mph - N/A Rain Light Rain
3:15 AM 56.3 °F - 47.7 °F 73% 29.79 in 10.0 mi SW 9.2 mph 18.4 mph N/A   Overcast
3:35 AM 55.4 °F - 48.6 °F 78% 29.79 in 10.0 mi SSW 5.8 mph - N/A   Light Drizzle
3:55 AM 53.8 °F - 48.6 °F 82% 29.79 in 10.0 mi South 5.8 mph - N/A   Light Drizzle
4:15 AM 53.1 °F - 46.8 °F 79% 29.79 in 10.0 mi South 6.9 mph - N/A Rain Light Rain
4:35 AM 52.0 °F - 46.6 °F 82% 29.79 in 10.0 mi SSW 8.1 mph - N/A Rain Light Rain
4:55 AM 51.1 °F - 47.3 °F 87% 29.79 in 10.0 mi SW 5.8 mph - N/A Rain Light Rain
5:15 AM 51.3 °F - 47.3 °F 86% 29.80 in 10.0 mi SSW 10.4 mph - N/A Rain Rain
5:35 AM 51.1 °F - 48.4 °F 90% 29.80 in 10.0 mi WSW 9.2 mph - N/A Rain Light Rain
5:55 AM 52.7 °F - 48.0 °F 84% 29.80 in 10.0 mi SW 9.2 mph - N/A Rain Rain
6:15 AM 52.3 °F - 47.8 °F 85% 29.81 in 10.0 mi WSW 10.4 mph 18.4 mph N/A Rain Light Rain
6:35 AM 52.2 °F - 47.1 °F 83% 29.81 in 10.0 mi WSW 11.5 mph 17.3 mph N/A Rain Light Rain
6:55 AM 51.8 °F - 46.4 °F 82% 29.81 in 10.0 mi WSW 9.2 mph 17.3 mph N/A   Light Drizzle
7:15 AM 52.5 °F - 47.3 °F 82% 29.81 in 10.0 mi WSW 8.1 mph 16.1 mph N/A   Overcast
7:35 AM 53.1 °F - 46.4 °F 78% 29.81 in 10.0 mi West 10.4 mph - N/A   Overcast
7:55 AM 52.7 °F - 45.0 °F 75% 29.82 in 10.0 mi West 13.8 mph 18.4 mph N/A   Overcast
8:15 AM 52.3 °F - 44.2 °F 74% 29.82 in 10.0 mi West 9.2 mph - N/A   Overcast
8:35 AM 51.8 °F - 45.3 °F 79% 29.83 in 10.0 mi WNW 10.4 mph 19.6 mph N/A   Overcast
8:54 AM 50.9 °F - 44.6 °F 79% 29.84 in 10.0 mi WNW 12.7 mph 19.6 mph N/A   Overcast
9:15 AM 50.5 °F - 43.3 °F 76% 29.85 in 10.0 mi West 10.4 mph 17.3 mph N/A   Overcast
9:35 AM 50.0 °F - 42.8 °F 76% 29.85 in 10.0 mi WNW 12.7 mph 18.4 mph N/A   Overcast
9:54 AM 49.6 °F - 42.1 °F 75% 29.86 in 10.0 mi WNW 12.7 mph 20.7 mph N/A   Overcast
10:15 AM 49.3 °F - 41.9 °F 76% 29.86 in 10.0 mi WNW 13.8 mph 19.6 mph N/A   Overcast
10:34 AM 49.1 °F - 41.4 °F 75% 29.86 in 10.0 mi WNW 10.4 mph 19.6 mph N/A   Overcast
10:55 AM 48.2 °F - 40.6 °F 75% 29.87 in 10.0 mi WNW 10.4 mph 19.6 mph N/A   Overcast
11:15 AM 48.0 °F - 39.9 °F 74% 29.87 in 10.0 mi WNW 12.7 mph 20.7 mph N/A   Overcast
11:35 AM 47.5 °F - 39.2 °F 73% 29.87 in 10.0 mi WNW 12.7 mph 17.3 mph N/A   Overcast
11:55 AM 47.3 °F - 38.5 °F 71% 29.88 in 10.0 mi West 11.5 mph 18.4 mph N/A   Overcast
12:15 PM 47.3 °F - 38.8 °F 72% 29.88 in 10.0 mi West 11.5 mph - N/A   Overcast
12:35 PM 47.3 °F - 38.8 °F 72% 29.88 in 10.0 mi WNW 12.7 mph 18.4 mph N/A   Overcast
12:55 PM 46.8 °F - 37.8 °F 71% 29.89 in 10.0 mi WNW 12.7 mph 19.6 mph N/A   Overcast
1:14 PM 46.6 °F - 36.7 °F 68% 29.88 in 10.0 mi West 13.8 mph 18.4 mph N/A   Overcast
1:35 PM 46.6 °F - 37.0 °F 69% 29.88 in 10.0 mi West 11.5 mph 17.3 mph N/A   Overcast
1:55 PM 46.4 °F 41.1 °F 35.6 °F 66% 29.88 in 10.0 mi West 11.5 mph 19.6 mph N/A   Overcast
2:14 PM 46.4 °F 41.1 °F 35.4 °F 66% 29.88 in 10.0 mi West 11.5 mph 18.4 mph N/A   Overcast
2:35 PM 46.4 °F 41.5 °F 35.4 °F 66% 29.88 in 10.0 mi West 10.4 mph 18.4 mph N/A   Overcast
2:55 PM 46.0 °F 41.4 °F 34.2 °F 63% 29.87 in 10.0 mi West 9.2 mph - N/A   Overcast
3:14 PM 45.5 °F 39.6 °F 35.4 °F 68% 29.87 in 10.0 mi West 12.7 mph 17.3 mph N/A   Overcast
3:35 PM 45.5 °F 40.3 °F 34.9 °F 66% 29.87 in 10.0 mi West 10.4 mph 16.1 mph N/A   Overcast
3:55 PM 45.5 °F 40.8 °F 34.3 °F 65% 29.88 in 10.0 mi West 9.2 mph 16.1 mph N/A   Overcast
4:14 PM 45.5 °F 41.8 °F 33.6 °F 63% 29.87 in 10.0 mi West 6.9 mph 10.4 mph N/A   Overcast
4:35 PM 45.7 °F 40.2 °F 32.7 °F 61% 29.87 in 10.0 mi West 11.5 mph 17.3 mph N/A   Overcast
4:55 PM 45.9 °F 41.2 °F 32.9 °F 61% 29.87 in 10.0 mi West 9.2 mph 19.6 mph N/A   Overcast
5:15 PM 46.0 °F 40.2 °F 32.0 °F 58% 29.87 in 10.0 mi West 12.7 mph 19.6 mph N/A   Overcast
5:35 PM 46.4 °F 41.1 °F 30.9 °F 55% 29.87 in 10.0 mi West 11.5 mph 21.9 mph N/A   Overcast
5:55 PM 46.4 °F 41.5 °F 31.5 °F 56% 29.87 in 10.0 mi West 10.4 mph 17.3 mph N/A   Overcast
6:15 PM 46.4 °F 42.4 °F 31.8 °F 57% 29.87 in 10.0 mi West 8.1 mph 17.3 mph N/A   Overcast
6:35 PM 46.4 °F 41.1 °F 32.0 °F 57% 29.87 in 10.0 mi West 11.5 mph 18.4 mph N/A   Overcast
6:55 PM 46.9 °F - 31.6 °F 55% 29.87 in 10.0 mi WSW 12.7 mph 18.4 mph N/A   Overcast
7:15 PM 47.3 °F - 32.2 °F 56% 29.88 in 10.0 mi West 11.5 mph 17.3 mph N/A   Overcast
7:35 PM 47.1 °F - 32.7 °F 57% 29.89 in 10.0 mi WNW 13.8 mph 21.9 mph N/A   Overcast
7:55 PM 46.4 °F 40.4 °F 32.0 °F 57% 29.89 in 10.0 mi West 13.8 mph 24.2 mph N/A   Overcast
8:15 PM 45.9 °F 38.5 °F 32.4 °F 59% 29.90 in 10.0 mi West 18.4 mph 24.2 mph N/A   Overcast
8:35 PM 45.0 °F 38.2 °F 32.9 °F 63% 29.90 in 10.0 mi West 15.0 mph 26.5 mph N/A   Overcast
8:55 PM 44.1 °F 37.1 °F 30.2 °F 58% 29.91 in 10.0 mi West 15.0 mph 26.5 mph N/A   Overcast
9:15 PM 43.7 °F 36.9 °F 30.0 °F 59% 29.91 in 10.0 mi West 13.8 mph 21.9 mph N/A   Overcast
9:35 PM 42.4 °F 35.7 °F 27.5 °F 56% 29.92 in 10.0 mi West 12.7 mph 33.4 mph N/A   Overcast
9:55 PM 42.4 °F 35.0 °F 28.6 °F 58% 29.92 in 10.0 mi WNW 15.0 mph 24.2 mph N/A   Overcast
10:15 PM 42.1 °F 34.5 °F 26.6 °F 54% 29.93 in 10.0 mi WNW 15.0 mph 25.3 mph N/A   Overcast
10:35 PM 42.4 °F 35.3 °F 25.5 °F 51% 29.92 in 10.0 mi WNW 13.8 mph 26.5 mph N/A   Overcast
10:55 PM 42.3 °F 35.5 °F 25.9 °F 52% 29.92 in 10.0 mi WNW 12.7 mph 20.7 mph N/A   Overcast
11:14 PM 42.4 °F 34.7 °F 26.6 °F 54% 29.92 in 10.0 mi WNW 16.1 mph 21.9 mph N/A   Overcast
11:35 PM 42.4 °F 35.7 °F 26.8 °F 54% 29.92 in 10.0 mi WNW 12.7 mph 19.6 mph N/A   Overcast
11:55 PM 42.4 °F 36.5 °F 26.4 °F 53% 29.92 in 10.0 mi WNW 10.4 mph 20.7 mph N/A   Overcast